TRA73J EFHK-EFOU

Flight info

Callsign TRA73J
Flight time 0h 59m
Altitude 38000
Route TEVRU Y75 SUVIB
Aircraft B738/M-SDGIJ1LRWY/SB1

Departure

Time 2026-04-30 19:28
Airport Helsinki Vantaa Airport (EFHK)

Arrival

Time 2026-04-30 20:27
Airport Oulu Airport (EFOU)
Time Latitude Longitude Altitude Speed Heading
2026-04-30 18:34 60.31787 24.97085 187 ft 0 kts 243°
2026-04-30 19:14 60.31788 24.97087 187 ft 1 kts 243°
2026-04-30 19:14 60.31795 24.97113 187 ft 2 kts 242°
2026-04-30 19:14 60.31801 24.97140 187 ft 2 kts 243°
2026-04-30 19:15 60.31808 24.97167 187 ft 2 kts 245°
2026-04-30 19:15 60.31801 24.97220 187 ft 1 kts 327°
2026-04-30 19:15 60.31795 24.97225 187 ft 1 kts 336°
2026-04-30 19:16 60.31793 24.97228 187 ft 0 kts 333°
2026-04-30 19:19 60.31812 24.97208 187 ft 4 kts 333°
2026-04-30 19:20 60.31859 24.97158 187 ft 12 kts 332°
2026-04-30 19:20 60.31953 24.97056 187 ft 15 kts 333°
2026-04-30 19:20 60.32128 24.96873 187 ft 10 kts 331°
2026-04-30 19:21 60.32187 24.96805 187 ft 8 kts 329°
2026-04-30 19:21 60.32285 24.96684 187 ft 7 kts 329°
2026-04-30 19:22 60.32400 24.96550 187 ft 9 kts 330°
2026-04-30 19:22 60.32604 24.96304 187 ft 14 kts 327°
2026-04-30 19:23 60.32933 24.95923 187 ft 20 kts 330°
2026-04-30 19:24 60.33164 24.95600 187 ft 19 kts 318°
2026-04-30 19:24 60.33210 24.95441 187 ft 7 kts 264°
2026-04-30 19:24 60.33154 24.95272 187 ft 6 kts 231°
2026-04-30 19:25 60.33107 24.95037 187 ft 6 kts 270°
2026-04-30 19:26 60.33115 24.94635 187 ft 12 kts 275°
2026-04-30 19:26 60.33087 24.94333 187 ft 9 kts 232°
2026-04-30 19:26 60.33045 24.94237 187 ft 8 kts 227°
2026-04-30 19:27 60.32902 24.93932 187 ft 34 kts 226°
2026-04-30 19:27 60.32010 24.91968 188 ft 147 kts 226°
2026-04-30 19:28 60.31268 24.90389 502 ft 158 kts 227°
2026-04-30 19:28 60.30101 24.86490 1212 ft 176 kts 271°
2026-04-30 19:29 60.30905 24.81688 1856 ft 192 kts 298°
2026-04-30 19:29 60.31457 24.79163 2168 ft 204 kts 297°
2026-04-30 19:30 60.33610 24.70851 3244 ft 240 kts 303°
2026-04-30 19:30 60.35531 24.65107 3978 ft 250 kts 321°
2026-04-30 19:31 60.38678 24.62839 3977 ft 246 kts 359°
2026-04-30 19:31 60.40372 24.63071 3983 ft 245 kts
2026-04-30 19:31 60.43689 24.64639 3976 ft 246 kts 13°
2026-04-30 19:32 60.45354 24.65467 3980 ft 246 kts 12°
2026-04-30 19:32 60.47007 24.66246 3982 ft 245 kts 12°
2026-04-30 19:32 60.48673 24.67008 3984 ft 246 kts 12°
2026-04-30 19:32 60.50365 24.67779 4085 ft 258 kts 12°
2026-04-30 19:33 60.52069 24.68558 5081 ft 249 kts 12°
2026-04-30 19:33 60.53752 24.69330 5801 ft 250 kts 12°
2026-04-30 19:33 60.55436 24.70103 6573 ft 251 kts 12°
2026-04-30 19:33 60.57136 24.70857 7319 ft 252 kts
2026-04-30 19:34 60.58860 24.71181 8084 ft 252 kts
2026-04-30 19:34 60.60594 24.71199 8863 ft 252 kts 360°
2026-04-30 19:34 60.64085 24.71326 10421 ft 254 kts
2026-04-30 19:35 60.65873 24.71485 10935 ft 265 kts
2026-04-30 19:35 60.67751 24.71673 11405 ft 278 kts
2026-04-30 19:35 60.69723 24.71873 11847 ft 291 kts
2026-04-30 19:35 60.71738 24.72075 12615 ft 294 kts
2026-04-30 19:36 60.73775 24.72276 13390 ft 296 kts
2026-04-30 19:36 60.75816 24.72476 14216 ft 296 kts
2026-04-30 19:36 60.79938 24.72878 15777 ft 301 kts
2026-04-30 19:37 60.82022 24.73081 16513 ft 304 kts
2026-04-30 19:37 60.84115 24.73286 17293 ft 305 kts
2026-04-30 19:37 60.86225 24.73493 18006 ft 307 kts
2026-04-30 19:37 60.88349 24.73700 18713 ft 309 kts
2026-04-30 19:38 60.90495 24.73907 19353 ft 313 kts
2026-04-30 19:38 60.92670 24.74118 19966 ft 317 kts
2026-04-30 19:38 60.94869 24.74333 20570 ft 320 kts
2026-04-30 19:38 60.97088 24.74554 21227 ft 322 kts
2026-04-30 19:39 60.99317 24.74777 21826 ft 325 kts
2026-04-30 19:39 61.01566 24.75001 22425 ft 327 kts
2026-04-30 19:39 61.03838 24.75226 22993 ft 330 kts
2026-04-30 19:39 61.06124 24.75454 23523 ft 333 kts
2026-04-30 19:40 61.08435 24.75684 24021 ft 337 kts
2026-04-30 19:40 61.10776 24.75916 24582 ft 339 kts
2026-04-30 19:40 61.13130 24.76151 25101 ft 342 kts
2026-04-30 19:40 61.15497 24.76387 25683 ft 343 kts
2026-04-30 19:41 61.17875 24.76624 26204 ft 345 kts
2026-04-30 19:41 61.20266 24.76863 26759 ft 346 kts
2026-04-30 19:41 61.22673 24.77104 27182 ft 351 kts
2026-04-30 19:41 61.25100 24.77348 27685 ft 352 kts
2026-04-30 19:42 61.27547 24.77595 28131 ft 355 kts
2026-04-30 19:42 61.30014 24.77842 28592 ft 358 kts
2026-04-30 19:42 61.32494 24.78091 29037 ft 360 kts
2026-04-30 19:42 61.34994 24.78344 29448 ft 363 kts
2026-04-30 19:43 61.37504 24.78598 29938 ft 363 kts
2026-04-30 19:43 61.40024 24.78853 30344 ft 366 kts
2026-04-30 19:43 61.42553 24.79109 30817 ft 366 kts
2026-04-30 19:44 61.47665 24.79627 31430 ft 373 kts
2026-04-30 19:44 61.50250 24.79891 31818 ft 374 kts
2026-04-30 19:44 61.52856 24.80156 32092 ft 378 kts
2026-04-30 19:44 61.55487 24.80426 32418 ft 380 kts
2026-04-30 19:45 61.58113 24.80695 32882 ft 379 kts
2026-04-30 19:45 61.60727 24.80963 33419 ft 375 kts
2026-04-30 19:45 61.63315 24.81229 33834 ft 374 kts
2026-04-30 19:45 61.65896 24.81495 34209 ft 374 kts
2026-04-30 19:46 61.68489 24.81765 34564 ft 373 kts
2026-04-30 19:46 61.71074 24.82031 34933 ft 372 kts
2026-04-30 19:46 61.73660 24.82299 35233 ft 372 kts
2026-04-30 19:46 61.76264 24.82568 35521 ft 372 kts
2026-04-30 19:47 61.78858 24.82837 35794 ft 373 kts
2026-04-30 19:47 61.80583 24.83017 35988 ft 372 kts
2026-04-30 19:47 61.84025 24.83375 36317 ft 373 kts
2026-04-30 19:47 61.86607 24.83643 36552 ft 373 kts
2026-04-30 19:48 61.89197 24.83912 36869 ft 373 kts
2026-04-30 19:48 61.91781 24.84182 37195 ft 373 kts
2026-04-30 19:48 61.94368 24.84454 37505 ft 373 kts
2026-04-30 19:48 61.96945 24.84725 37826 ft 372 kts
2026-04-30 19:49 61.99523 24.84996 38109 ft 372 kts
2026-04-30 19:49 62.07272 24.85816 38145 ft 372 kts
2026-04-30 19:50 62.12422 24.86361 38144 ft 373 kts
2026-04-30 19:50 62.17590 24.86911 38138 ft 373 kts
2026-04-30 19:51 62.22754 24.87460 38140 ft 373 kts
2026-04-30 19:51 62.27905 24.88012 38141 ft 373 kts
2026-04-30 19:52 62.33087 24.88570 38141 ft 374 kts
2026-04-30 19:52 62.38287 24.89131 38142 ft 374 kts
2026-04-30 19:53 62.43494 24.89694 38140 ft 374 kts
2026-04-30 19:53 62.48673 24.90256 38137 ft 374 kts
2026-04-30 19:54 62.53872 24.90823 38138 ft 375 kts
2026-04-30 19:54 62.59062 24.91389 38139 ft 374 kts
2026-04-30 19:55 62.64275 24.91960 38140 ft 375 kts
2026-04-30 19:55 62.69490 24.92535 38138 ft 376 kts
2026-04-30 19:56 62.74687 24.93112 38140 ft 375 kts
2026-04-30 19:56 62.79898 24.93689 38140 ft 376 kts
2026-04-30 19:57 62.85098 24.94266 38138 ft 375 kts
2026-04-30 19:57 62.90318 24.94846 38138 ft 377 kts
2026-04-30 19:58 62.95545 24.95433 38139 ft 377 kts
2026-04-30 19:58 63.00756 24.96020 38139 ft 376 kts
2026-04-30 19:59 63.05931 24.96609 37542 ft 371 kts
2026-04-30 19:59 63.11122 24.97196 35907 ft 377 kts
2026-04-30 20:00 63.13753 24.97492 35247 ft 379 kts
2026-04-30 20:00 63.16375 24.97789 34558 ft 379 kts
2026-04-30 20:00 63.19002 24.98089 33714 ft 379 kts
2026-04-30 20:00 63.21601 24.98389 33302 ft 371 kts
2026-04-30 20:01 63.26672 24.98976 32414 ft 361 kts
2026-04-30 20:01 63.29158 24.99263 31971 ft 356 kts 360°
2026-04-30 20:01 63.31605 24.99544 31533 ft 352 kts 360°
2026-04-30 20:02 63.36406 25.00095 30664 ft 343 kts 360°
2026-04-30 20:02 63.38761 25.00367 30222 ft 338 kts 359°
2026-04-30 20:03 63.43372 25.00901 29376 ft 329 kts 359°
2026-04-30 20:03 63.45632 25.01164 28958 ft 325 kts 359°
2026-04-30 20:03 63.47864 25.01422 28549 ft 320 kts 359°
2026-04-30 20:03 63.50059 25.01676 28145 ft 316 kts 359°
2026-04-30 20:04 63.52231 25.01930 27735 ft 312 kts 359°
2026-04-30 20:04 63.54406 25.02180 27337 ft 321 kts 359°
2026-04-30 20:04 63.56675 25.02435 26888 ft 333 kts 360°
2026-04-30 20:05 63.61249 25.02973 25996 ft 327 kts 359°
2026-04-30 20:05 63.63488 25.03242 25568 ft 322 kts 359°
2026-04-30 20:05 63.67881 25.03770 24731 ft 313 kts 359°
2026-04-30 20:06 63.70036 25.04024 24316 ft 309 kts 360°
2026-04-30 20:06 63.72160 25.04274 23900 ft 305 kts 360°
2026-04-30 20:06 63.74257 25.04522 23485 ft 302 kts 359°
2026-04-30 20:06 63.76328 25.04768 23081 ft 298 kts 359°
2026-04-30 20:07 63.78383 25.05011 22559 ft 298 kts 359°
2026-04-30 20:07 63.80432 25.05255 22137 ft 294 kts 359°
2026-04-30 20:07 63.84451 25.05734 21335 ft 288 kts 359°
2026-04-30 20:08 63.86468 25.05970 20939 ft 298 kts 359°
2026-04-30 20:08 63.88570 25.06210 20495 ft 308 kts 359°
2026-04-30 20:08 63.90689 25.06462 20061 ft 305 kts 359°
2026-04-30 20:08 63.92788 25.06719 19635 ft 301 kts 359°
2026-04-30 20:09 63.94855 25.06974 19212 ft 297 kts 359°
2026-04-30 20:09 63.96897 25.07225 18802 ft 294 kts 359°
2026-04-30 20:09 64.00908 25.07711 17973 ft 287 kts 359°
2026-04-30 20:10 64.04840 25.08183 17134 ft 282 kts 359°
2026-04-30 20:10 64.06773 25.08416 16738 ft 279 kts 359°
2026-04-30 20:10 64.08690 25.08649 16340 ft 276 kts 359°
2026-04-30 20:11 64.12464 25.09108 15551 ft 271 kts 359°
2026-04-30 20:11 64.14330 25.09335 15172 ft 269 kts 359°
2026-04-30 20:11 64.16182 25.09560 14785 ft 267 kts 359°
2026-04-30 20:12 64.19852 25.10009 14027 ft 266 kts 359°
2026-04-30 20:12 64.21733 25.10234 13652 ft 279 kts 359°
2026-04-30 20:12 64.23683 25.10467 13249 ft 283 kts 360°
2026-04-30 20:13 64.25631 25.10709 12848 ft 281 kts 360°
2026-04-30 20:13 64.27561 25.10952 12443 ft 278 kts
2026-04-30 20:13 64.29475 25.11192 12050 ft 276 kts
2026-04-30 20:13 64.31348 25.11989 11666 ft 277 kts 15°
2026-04-30 20:14 64.33104 25.13783 11262 ft 278 kts 22°
2026-04-30 20:14 64.34810 25.15816 10882 ft 276 kts 22°
2026-04-30 20:14 64.36506 25.17789 10521 ft 273 kts 21°
2026-04-30 20:14 64.38190 25.19653 10287 ft 265 kts 20°
2026-04-30 20:15 64.39820 25.21406 10184 ft 253 kts 20°
2026-04-30 20:15 64.41395 25.23078 9931 ft 248 kts 20°
2026-04-30 20:15 64.42962 25.24729 9573 ft 248 kts 20°
2026-04-30 20:15 64.44528 25.26382 9231 ft 247 kts 20°
2026-04-30 20:16 64.46080 25.28029 8902 ft 246 kts 20°
2026-04-30 20:16 64.47625 25.29674 8570 ft 245 kts 20°
2026-04-30 20:16 64.49161 25.31312 8247 ft 243 kts 20°
2026-04-30 20:16 64.50689 25.32943 7918 ft 242 kts 20°
2026-04-30 20:17 64.52213 25.34572 7592 ft 241 kts 21°
2026-04-30 20:17 64.53724 25.36188 7269 ft 240 kts 20°
2026-04-30 20:17 64.55231 25.37802 6952 ft 239 kts 21°
2026-04-30 20:17 64.56729 25.39408 6629 ft 238 kts 21°
2026-04-30 20:18 64.58225 25.41011 6309 ft 237 kts 21°
2026-04-30 20:18 64.59843 25.42750 5965 ft 236 kts 21°
2026-04-30 20:18 64.61331 25.44348 5640 ft 236 kts 21°
2026-04-30 20:18 64.62809 25.45940 5325 ft 235 kts 21°
2026-04-30 20:19 64.64284 25.47534 5014 ft 234 kts 21°
2026-04-30 20:19 64.65751 25.49121 4704 ft 233 kts 21°
2026-04-30 20:19 64.67219 25.50706 4384 ft 233 kts 21°
2026-04-30 20:19 64.68673 25.52279 4063 ft 228 kts 22°
2026-04-30 20:20 64.70078 25.53804 3779 ft 220 kts 22°
2026-04-30 20:20 64.71443 25.55283 3500 ft 213 kts 21°
2026-04-30 20:20 64.72773 25.56726 3213 ft 212 kts 22°
2026-04-30 20:20 64.74103 25.58170 2925 ft 211 kts 22°
2026-04-30 20:21 64.75414 25.59598 2758 ft 204 kts 22°
2026-04-30 20:21 64.76664 25.60989 2695 ft 194 kts 24°
2026-04-30 20:21 64.77815 25.62488 2656 ft 184 kts 28°
2026-04-30 20:21 64.78863 25.64026 2580 ft 173 kts 28°
2026-04-30 20:22 64.79876 25.65512 2533 ft 172 kts 29°
2026-04-30 20:22 64.80895 25.66967 2480 ft 171 kts 28°
2026-04-30 20:22 64.81912 25.68411 2428 ft 172 kts 28°
2026-04-30 20:22 64.82991 25.69511 2357 ft 168 kts
2026-04-30 20:23 64.84093 25.68962 2305 ft 164 kts 322°
2026-04-30 20:23 64.84848 25.66981 2262 ft 164 kts 306°
2026-04-30 20:23 64.85498 25.64809 2263 ft 163 kts 304°
2026-04-30 20:23 64.86113 25.62565 2256 ft 163 kts 302°
2026-04-30 20:24 64.86697 25.60305 2258 ft 160 kts 301°
2026-04-30 20:24 64.87275 25.58032 2263 ft 163 kts 301°
2026-04-30 20:24 64.87842 25.55796 2201 ft 156 kts 301°
2026-04-30 20:24 64.88393 25.53617 1873 ft 153 kts 301°
2026-04-30 20:25 64.89434 25.49512 1440 ft 139 kts 300°
2026-04-30 20:25 64.89917 25.47607 1171 ft 134 kts 300°
2026-04-30 20:26 64.90879 25.43820 773 ft 134 kts 300°
2026-04-30 20:26 64.91844 25.40009 360 ft 137 kts 300°
2026-04-30 20:26 64.92343 25.38070 131 ft 140 kts 300°
2026-04-30 20:27 64.93133 25.34927 52 ft 64 kts 298°
2026-04-30 20:27 64.93389 25.34106 54 ft 7 kts 333°
2026-04-30 20:28 64.93494 25.34097 53 ft 7 kts 26°
2026-04-30 20:28 64.93485 25.34318 53 ft 7 kts 124°
2026-04-30 20:29 64.93428 25.34547 52 ft 8 kts 118°
2026-04-30 20:30 64.93339 25.34926 51 ft 9 kts 119°
2026-04-30 20:30 64.93240 25.35314 51 ft 10 kts 122°
2026-04-30 20:31 64.93056 25.36009 51 ft 21 kts 122°
2026-04-30 20:32 64.92843 25.36844 49 ft 18 kts 121°
2026-04-30 20:32 64.92732 25.37291 48 ft 13 kts 121°
2026-04-30 20:33 64.92703 25.37452 47 ft 7 kts 78°
2026-04-30 20:33 64.92744 25.37525 47 ft 1 kts 28°
2026-04-30 20:33 64.92751 25.37535 47 ft 0 kts 29°